Location: Cedar Springs
(43.2230°N, 85.5510°W)
Time: 23:41:21
(UTC-04:00)

Cosmos 2278 Rocket - Visible Passes

Search period start: 25 October 2014 00:00
Search period end: 03 November 2014 23:00
Orbit: 842 x 845 km, 71.0° (Epoch: 24 October)

Date Brightness Start Highest point End Pass type
(mag) Time Alt. Az. Time Alt. Az. Time Alt. Az.
25 Oct 3.2 20:32:41 10° NW 20:38:03 46° WSW 20:43:23 10° S visible
26 Oct 3.2 20:18:12 10° NW 20:23:36 48° WSW 20:28:58 10° S visible
27 Oct 3.2 20:03:42 10° NW 20:09:08 50° WSW 20:14:33 10° S visible
28 Oct 3.1 19:49:13 10° NW 19:54:41 52° WSW 20:00:07 10° S visible
29 Oct 3.1 19:34:43 10° NNW 19:40:13 54° WSW 19:45:41 10° S visible
30 Oct 3.0 19:20:14 10° NNW 19:25:46 56° WSW 19:31:15 10° S visible
31 Oct 3.0 19:05:45 10° NNW 19:11:18 59° WSW 19:16:49 10° S visible
03 Nov 4.4 06:46:01 10° SSE 06:50:58 32° ESE 06:55:56 10° NE visible
